Torna al catalogo

YUNYAO-1 27

AttivoMeteoSSO
NORAD 65490·PAYLOAD·🇨🇳 China
Questo nome del satellite non è ancora stato confermato da fonti ufficiali.

Lanciato Sep 5, 2025 da Jiuquan Satellite Launch Center

Loading…

Prossimi Passaggi (prossime 24 ore)

TLE

AggiornatoSource: Space-Track

Epoca: Sep 14, 2026, 11:30 UTC

1 65490U 25197C   26257.47971591  .00003493  00000-0  14186-3 0  9995
2 65490  97.4110  83.5485 0015582  59.2012 301.0757 15.25141034 56922

Traccia YUNYAO-1 27 in tempo reale con AllMySat

Download on the App Store